Location: Unspecified
(32.7760°N, 0.0000°E)
Time: 06:22:41
(UTC+00:00)

Meteor 1-18 Rocket - Visible Passes

Search period start: 04 April 2026 00:00
Search period end: 14 April 2026 00:00
Orbit: 835 x 908 km, 81.2° (Epoch: 29 March)

Date Brightness Start Highest point End Pass type
(mag) Time Alt. Az. Time Alt. Az. Time Alt. Az.
5 Apr 7.7 04:15:33 10° E 04:16:22 10° E 04:17:10 10° ENE visible
6 Apr 7.5 04:09:09 10° E 04:10:33 11° E 04:11:56 10° ENE visible
7 Apr 7.4 04:02:57 10° ESE 04:04:44 11° E 04:06:30 10° ENE visible
8 Apr 7.3 03:56:49 10° ESE 03:58:55 12° E 04:00:59 10° ENE visible
9 Apr 7.2 03:50:44 10° ESE 03:53:05 13° E 03:55:26 10° ENE visible
10 Apr 7.1 03:44:41 10° ESE 03:47:16 13° E 03:49:51 10° ENE visible
11 Apr 7.1 03:38:40 10° ESE 03:41:27 14° E 03:44:13 10° NE visible
12 Apr 7.0 03:32:39 10° ESE 03:35:38 15° E 03:38:36 10° NE visible
13 Apr 7.0 03:26:39 10° ESE 03:29:49 15° E 03:32:57 10° NE visible
13 Apr 4.4 05:07:09 10° SSW 05:12:38 52° W 05:18:05 10° N visible
